Starlink 32582

operational
NORAD ID: 62033 Int'l Des: 2024-216 Owner: SPXS Country: US Constellation: starlink
LEOCIRCULAR

关于 Starlink 32582

正在加载描述...

实时位置

正在加载3D地球...

即将过境

高度历史

Altitude vs Time

uPlot chart will show altitude changes over time

两行轨道根数

1 62033U 24216B 25352.08086962 .00008250 00000-0 30902-3 0 9997
2 62033 43.0063 4.2150 0001413 243.7672 116.3035 15.27576738 61315
Epoch: Dec 18, 2025 • Age: 18 hours

当前状态

高度 489.6 km
速度 7.62 km/s
星下点 -28.62°S, 174.9°W
发射日期 Nov 21, 2024
运行时间 1 years
类型 internet

技术详情

分类 Payload
质量 730.00 kg
干质量 700.00 kg
总质量 730.00 kg
长度 0.30 m
直径 4.10 m
跨度 29.00 m
形状 Box + pan
制造商 SPXS
平台类型 Starlink V2M
阶段状态 In Orbit
所有者/国家 SPXS/US

大型星座

Loading constellations...